This is the latest recevied weather packets stored in our database for station/object GBTWP-2. If no packets are shown the sender has not sent any weather packets the latest 10 day(s).
| Time | Temp. | Humidity | Pressure | Rain* | Wind** | Luminosity | Snow |
|---|---|---|---|---|---|---|---|
| 1778104202 | 11.11° C | 46% | 1014.7 hPa | 0 mm | - | 56 W/m² | - |
| 1778103902 | 11.11° C | 47% | 1014.9 hPa | 0 mm | - | 85 W/m² | - |
| 1778103602 | 11.11° C | 47% | 1014.7 hPa | 0 mm | - | 86 W/m² | - |
| 1778103303 | 11.11° C | 47% | 1014.6 hPa | 0 mm | - | 64 W/m² | - |
| 1778102702 | 11.67° C | 45% | 1014.7 hPa | 0 mm | - | 80 W/m² | - |
| 1778102402 | 11.11° C | 45% | 1014.6 hPa | 0 mm | - | 92 W/m² | - |
| 1778102101 | 11.11° C | 45% | 1014.7 hPa | 0 mm | - | 94 W/m² | - |
| 1778101502 | 11.11° C | 46% | 1014.7 hPa | 0 mm | - | 80 W/m² | - |
| 1778100902 | 11.11° C | 46% | 1015 hPa | 0 mm | - | 97 W/m² | - |
| 1778100302 | 10.56° C | 45% | 1014.6 hPa | 0 mm | - | 96 W/m² | - |
| 1778099402 | 10.56° C | 45% | 1015.2 hPa | 0 mm | - | 104 W/m² | - |
| 1778098802 | 10.56° C | 49% | 1015.1 hPa | 0 mm | - | 58 W/m² | - |
| 1778098501 | 11.11° C | 47% | 1014.9 hPa | 0 mm | - | 60 W/m² | - |
| 1778097602 | 11.11° C | 46% | 1015.2 hPa | 0 mm | - | 82 W/m² | - |
| 1778097302 | 11.11° C | 49% | 1015 hPa | 0 mm | - | 139 W/m² | - |
| 1778097002 | 11.11° C | 45% | 1015 hPa | 0 mm | - | 159 W/m² | - |
| 1778096702 | 11.11° C | 42% | 1015.2 hPa | 0 mm | - | 107 W/m² | - |
| 1778095802 | 11.11° C | 46% | 1015.2 hPa | 0 mm | - | 138 W/m² | - |
| 1778095202 | 11.11° C | 44% | 1015.2 hPa | 0 mm | - | 128 W/m² | - |
| 1778094902 | 11.11° C | 45% | 1015.5 hPa | 0 mm | - | 117 W/m² | - |
| 1778094602 | 10.56° C | 44% | 1015.5 hPa | 0 mm | - | 122 W/m² | - |
| 1778094302 | 10.56° C | 48% | 1015.3 hPa | 0 mm | - | 162 W/m² | - |
| 1778094003 | 10.56° C | 48% | 1015.5 hPa | 0 mm | - | 129 W/m² | - |
| 1778091902 | 10.56° C | 47% | 1015.3 hPa | 0 mm | - | 109 W/m² | - |
| 1778091002 | 10° C | 51% | 1015.5 hPa | 0 mm | - | 135 W/m² | - |
* Rain latest hour (hover to see other rain measurements)
** Current wind speed in m/s (hover to see current wind gust speed)